GFSMW_con_sbcape_123.txt.gz
CAPE
0 0 0 0 0 0 0 626 805 1398 1521 1466 992 803 1110 957 796 903 948 780 867 674 697 662 258 219 168 24 9 0 12 41 79 2 5 1 2 3 5 2 10 4 0
0 0 0 0 0 0 0 97 516 1024 1454 1587 1402 1304 1260 1009 1023 832 1013 882 938 799 801 689 499 567 448 39 20 131 63 95 55 29 3 14 1 2 7 15 21 14 5
0 0 0 0 0 0 0 0 291 658 1269 1508 906 367 317 218 295 538 908 1009 733 899 936 679 584 394 369 142 72 142 133 54 26 0 3 5 3 5 6 7 24 7 1
0 0 0 0 0 0 0 0 50 143 380 643 669 855 931 859 815 865 1088 659 663 758 925 679 514 566 508 346 186 176 152 53 52 9 0 0 0 4 4 4 17 22 6
0 0 0 0 0 0 0 0 0 0 0 0 1 5 80 76 16 200 552 321 586 587 696 788 590 508 402 395 232 83 48 17 9 9 1 0 0 0 0 2 2 12 14
0 0 0 0 0 0 0 0 0 0 0 0 0 0 0 0 4 65 283 203 223 408 469 548 545 587 271 172 64 23 17 7 0 0 0 0 5 2 0 2 3 1 1
0 0 0 0 0 0 0 0 0 0 0 0 0 0 0 0 0 0 37 96 19 169 385 246 257 284 170 60 18 0 0 0 0 0 0 0 0 2 2 0 1 0 1
0 0 0 0 0 0 0 0 0 0 0 0 0 0 0 0 0 0 0 28 94 106 286 115 198 169 11 0 0 0 0 0 0 0 0 0 0 0 0 4 0 1 1
0 0 0 0 0 0 0 0 0 0 0 0 0 0 0 0 0 0 0 0 3 11 12 8 169 112 8 0 0 0 0 0 0 0 0 0 0 0 0 0 0 0 0
0 0 0 0 0 0 0 0 0 0 0 0 0 0 0 0 0 0 0 0 0 5 0 0 22 49 7 5 2 0 0 0 0 0 1 1 0 0 0 0 0 0 0
0 0 0 0 0 0 0 0 0 0 0 0 0 0 0 0 0 0 0 0 0 0 9 0 0 13 2 1 1 0 0 0 0 0 0 2 0 0 0 0 0 0 0
0 0 0 0 0 0 0 0 0 0 0 0 0 0 0 0 0 0 0 0 0 0 8 1 0 11 0 0 2 0 0 0 0 0 1 1 0 1 0 0 0 0 0
1 1 0 0 0 1 1 1 1 2 0 0 0 0 0 0 0 0 0 0 0 4 0 8 27 25 0 0 0 0 0 0 0 0 2 0 1 1 1 2 0 0 0
2 1 2 1 1 1 2 2 2 1 0 0 0 0 0 1 1 0 0 2 1 8 5 14 47 23 4 0 0 0 0 0 0 0 0 0 0 0 1 0 0 0 0
2 1 2 1 2 2 1 1 2 3 1 3 1 3 4 2 2 2 1 0 3 8 11 18 37 9 0 0 0 0 0 0 1 0 0 0 0 0 0 0 0 0 0
6 4 2 2 2 4 5 5 5 3 2 1 2 5 2 4 1 4 4 1 0 6 28 43 19 3 0 0 0 0 0 0 0 0 0 0 0 0 0 0 0 0 0
6 7 4 5 1 0 2 5 7 6 6 3 3 4 4 5 2 3 4 2 0 7 49 47 17 1 0 2 1 0 0 0 0 0 0 0 0 0 0 1 1 2 0
5 6 3 1 4 4 3 3 6 3 0 1 3 4 5 4 5 5 5 3 3 5 45 50 12 1 0 1 1 2 0 0 0 0 0 0 0 0 0 1 0 0 0
2 2 2 3 5 5 2 6 0 1 4 7 4 4 6 6 5 6 5 5 3 2 25 35 0 0 0 1 1 0 0 0 1 1 1 0 0 1 0 0 0 0 0
3 1 0 0 4 2 3 0 3 0 5 6 5 5 6 5 5 4 5 4 2 0 1 1 1 0 0 1 1 0 0 0 1 1 1 1 0 1 1 0 0 0 0
2 1 0 2 5 1 1 0 2 3 5 1 0 1 3 3 3 2 4 3 1 0 0 0 0 0 1 1 1 1 0 0 1 1 1 1 1 1 0 0 0 0 0
0 1 0 1 4 0 1 0 2 0 3 1 0 0 0 2 3 1 1 2 0 0 0 0 0 0 0 0 1 1 0 0 0 0 0 0 0 0 0 0 0 0 0
0 0 0 0 0 1 2 3 0 0 0 0 0 0 0 0 0 1 0 0 0 0 0 0 0 0 0 0 0 0 0 0 0 0 1 2 2 1 0 3 2 0 0
0 0 0 0 1 1 2 3 0 0 0 0 0 0 0 0 0 0 0 0 0 0 0 0 0 0 0 0 0 0 0 2 0 0 0 0 0 0 0 0 0 0 0
0 0 0 0 0 0 1 0 0 0 1 0 0 0 0 0 0 0 1 0 0 2 0 0 0 0 0 2 1 0 0 0 0 0 0 0 0 0 0 0 0 0 0
0 0 0 0 0 0 2 1 1 0 1 3 1 0 0 0 0 0 0 6 5 12 10 10 0 2 8 7 6 5 4 3 0 0 0 0 0 0 0 0 0 0 0

GFSMW_con_sbcape_129.txt.gz
CAPE
0 0 0 0 0 0 1361 1863 1408 1077 1116 1257 1247 1039 929 667 652 904 1031 864 716 389 665 1118 1199 1050 747 626 484 736 579 360 153 71 57 51 77 85 456 551 304 120 129
0 0 0 0 0 0 838 1847 1995 1533 1071 1071 1303 1324 1386 1221 976 1027 982 1015 1119 898 998 1007 962 729 611 635 445 486 342 359 186 186 100 272 196 82 117 285 267 384 428
0 0 0 0 0 0 0 1400 1960 1967 1695 1461 1483 1319 1326 1213 1286 1037 842 948 1015 1125 1182 1099 849 712 798 562 420 492 826 382 131 235 574 243 223 90 45 5 168 60 183
0 0 0 0 0 0 0 880 1634 2098 2166 2068 1842 1624 1516 1300 1441 1247 996 985 1097 1121 1027 1120 956 914 725 949 578 560 877 837 239 127 55 4 47 116 62 7 5 4 40
0 0 0 0 0 0 0 95 885 1471 1930 2145 2062 2041 1990 2160 1949 1649 1135 1212 918 598 407 263 300 609 637 972 740 569 670 1164 1154 408 87 10 0 0 25 99 53 26 45
0 0 1 0 0 0 0 0 0 0 0 85 1024 1880 1666 1360 1210 1431 933 918 718 37 0 0 0 198 580 742 788 766 580 876 1132 850 481 138 17 1 12 15 80 7 30
8 4 1 0 0 0 0 0 0 0 0 0 0 0 0 0 318 658 705 642 256 239 23 6 61 435 784 806 727 516 581 742 705 650 487 134 266 2 9 8 22 0 5
8 6 4 2 4 4 0 0 0 0 0 0 0 0 0 0 0 0 0 5 108 359 352 348 437 628 803 758 466 474 604 614 710 806 742 145 170 0 0 3 9 1 2
17 11 10 7 9 2 1 0 0 0 0 0 0 0 0 0 0 0 0 0 0 0 0 86 408 298 502 549 408 315 298 344 461 570 866 468 95 0 0 0 6 0 5
13 21 12 8 11 5 5 1 0 0 0 0 0 0 0 0 0 0 0 0 0 0 0 0 0 22 153 381 275 154 125 120 95 188 295 150 152 69 3 15 0 0 1
15 12 16 18 9 8 7 2 0 0 0 0 0 0 0 0 0 0 0 0 0 0 0 0 0 0 5 45 159 44 55 8 29 27 49 3 8 11 2 1 2 2 10
16 16 10 6 9 9 5 6 3 2 3 3 2 0 0 0 0 0 0 0 0 0 0 0 0 0 1 2 22 20 3 1 1 6 2 1 1 5 2 1 2 2 9
7 4 5 8 7 10 6 5 7 4 3 3 2 2 2 1 1 1 2 1 1 0 0 0 1 2 2 6 15 21 4 0 2 1 1 2 2 3 1 0 2 2 9
11 9 7 7 6 7 5 2 4 2 0 1 2 2 1 0 1 2 2 4 3 2 1 1 1 4 3 10 11 20 29 2 5 0 1 2 2 2 1 0 2 3 8
8 7 5 5 5 5 3 10 8 6 5 3 2 2 1 1 1 2 2 2 4 4 5 3 3 3 6 11 18 21 36 10 2 1 0 3 0 0 0 0 2 7 7
11 8 9 8 8 6 9 7 6 5 4 2 2 2 2 3 3 4 4 4 3 4 6 5 3 4 2 6 2 11 32 19 6 1 0 0 0 0 0 0 0 4 3
7 6 4 8 9 8 11 12 10 9 8 7 3 4 3 4 4 3 2 2 3 7 4 6 7 6 5 1 1 1 35 14 4 2 0 0 0 0 0 1 0 0 0
1 3 8 8 8 8 9 11 7 6 4 4 4 3 4 5 4 3 4 4 7 9 10 7 7 7 5 0 2 1 1 6 13 0 0 0 0 0 0 0 0 1 1
4 2 5 5 6 7 9 7 7 5 5 5 4 5 6 4 4 4 6 6 8 8 8 8 8 7 3 1 2 1 0 15 1 0 0 0 3 0 1 0 1 1 1
1 1 4 4 3 7 9 8 8 12 4 5 5 5 4 5 5 9 7 7 10 8 8 5 3 2 2 0 0 0 0 0 0 1 0 0 0 2 1 0 0 1 0
1 0 3 5 6 8 11 7 8 8 13 3 2 4 5 6 6 8 10 6 8 5 4 3 1 1 1 2 2 0 0 0 0 0 1 1 2 1 1 0 0 0 0
2 1 1 3 5 6 10 8 9 7 8 4 3 4 7 12 8 10 17 9 13 7 4 4 2 2 1 1 2 1 1 1 0 0 0 1 1 1 1 1 1 0 0
2 1 2 2 1 3 10 1 9 5 4 2 2 4 4 9 15 14 14 22 13 17 7 7 2 2 3 1 0 1 0 0 0 0 0 0 0 0 0 0 0 0 0
2 2 2 2 2 4 7 6 9 7 3 2 3 6 6 8 12 22 24 24 26 16 17 19 5 3 2 3 1 0 0 1 0 0 0 0 0 0 1 0 0 0 0
3 2 3 2 3 3 4 5 7 5 5 4 5 6 4 5 7 8 18 26 19 25 22 21 22 7 3 6 7 4 1 1 0 0 0 0 0 0 0 0 0 0 0
3 2 2 2 2 1 2 3 4 4 5 4 4 4 5 5 4 4 4 2 7 10 8 11 17 17 12 12 12 10 5 2 1 0 0 0 0 0 0 0 0 0 0

GFSMW_con_sbcape_132.txt.gz
CAPE
0 0 0 0 0 0 0 0 56 1517 1865 1647 1746 1568 1500 1162 1361 1444 1309 1501 1260 1324 1380 1474 1396 1955 1821 1728 1382 1483 1381 1483 1381 1338 818 805 1000 764 639 776 707 507 565
0 0 0 0 0 0 0 0 0 1238 1717 1817 1886 1881 1912 1333 1117 1068 1144 1240 1039 1165 1094 1470 1785 1704 1697 1816 1119 1504 1329 1349 1400 1128 1004 857 552 515 856 658 541 591 485
5 1 0 0 0 0 0 0 0 566 1603 1746 1851 1766 1978 1419 1124 1201 1328 1595 1587 1351 987 1385 1672 1648 1581 1512 1066 1189 1160 929 945 1555 963 1006 769 677 599 547 559 473 237
17 21 6 0 0 0 0 0 0 114 1568 1717 1679 1606 1755 1413 1274 1534 1313 1363 1553 1531 1715 1863 1637 1682 1365 1188 1032 1142 1413 1658 991 845 1489 1340 979 629 548 386 522 530 366
28 14 0 40 0 0 0 0 0 0 1366 1974 1764 1878 1743 1730 1518 1396 1594 1836 1570 1566 1631 1680 1735 1115 1154 833 691 445 1058 1829 1881 1045 1030 1422 742 316 380 514 347 363 297
26 10 4 104 189 92 38 6 0 2 1171 1984 2082 2163 1939 2040 2394 2234 2392 2046 1854 1469 1526 838 381 292 48 30 64 759 877 983 1503 1477 1436 1262 949 752 577 349 452 633 553
19 17 13 11 4 0 14 1 0 0 0 0 35 1343 2434 2328 2311 2225 1797 1552 1088 589 358 594 90 3 0 5 0 232 629 825 1027 1479 1689 1750 1497 977 874 790 758 571 386
16 19 17 13 13 3 0 0 0 0 0 0 0 0 0 0 1 44 669 1249 1232 1437 1191 836 529 326 96 327 419 391 634 1089 1033 1221 1694 1822 1663 1261 980 759 351 658 248
9 16 15 16 19 14 6 0 0 0 0 0 0 0 0 0 0 0 0 1 142 278 423 422 1026 826 635 795 817 842 804 874 866 1163 1854 1821 1853 1703 1181 872 788 764 165
10 9 17 20 20 21 14 15 4 0 0 0 0 0 0 0 0 0 0 0 0 0 0 0 11 0 339 826 1022 953 893 671 752 1117 1256 1947 1835 1367 1248 777 618 555 679
13 12 6 2 23 30 23 8 7 1 0 2 0 0 0 0 0 0 0 0 0 0 0 0 0 0 0 39 390 557 516 431 476 386 579 879 1171 1208 1103 907 686 546 356
9 10 12 9 5 12 13 9 9 6 3 2 1 1 0 0 0 0 0 0 0 0 0 0 0 0 0 0 0 38 295 281 233 223 110 144 460 689 487 177 272 476 138
10 6 6 11 8 11 11 9 9 9 4 1 0 0 1 0 0 0 0 0 0 0 0 0 0 0 0 0 0 0 2 118 90 130 58 20 369 495 415 30 42 158 5
14 11 10 11 6 6 8 12 10 6 3 2 2 2 1 0 0 0 0 0 0 0 0 0 0 0 0 0 0 1 4 14 74 108 301 53 93 445 347 13 32 34 3
15 13 14 14 13 7 3 5 5 8 5 2 3 3 2 0 1 0 0 3 4 2 0 1 0 1 0 0 3 8 17 24 48 70 114 43 9 11 53 3 33 23 7
11 14 12 12 11 11 12 6 3 3 5 2 0 2 2 0 1 0 1 3 5 7 6 6 9 10 5 0 0 0 2 30 49 100 35 26 0 0 0 0 0 1 11
7 9 11 11 12 14 15 14 6 5 3 3 1 1 1 0 0 0 2 5 9 13 9 6 4 5 9 0 0 0 4 6 52 152 41 22 2 0 0 1 0 0 0
5 4 7 11 13 10 10 9 10 7 6 7 4 3 4 2 2 2 5 8 9 8 9 8 10 12 7 0 0 0 0 4 8 42 58 27 5 0 0 0 0 0 0
4 5 5 4 6 9 10 9 12 11 9 8 7 4 4 3 3 6 6 9 8 8 5 5 8 9 7 1 2 2 1 4 15 22 14 10 10 0 1 0 0 1 1
4 5 5 7 9 12 9 11 12 13 10 14 10 4 5 5 6 8 7 8 7 7 8 3 5 7 5 4 7 5 3 6 1 0 4 0 10 0 1 0 0 0 0
4 5 5 8 9 16 17 12 13 12 15 17 11 11 8 8 8 12 8 5 6 10 15 10 6 6 6 6 6 6 3 4 1 1 1 1 1 2 1 0 0 0 0
6 7 9 8 9 6 15 12 13 15 13 5 7 6 20 9 9 10 13 10 8 9 17 24 21 10 6 3 4 5 3 2 0 1 1 0 2 1 1 1 1 1 0
8 9 9 9 8 8 6 5 11 15 14 9 8 19 23 26 25 21 26 21 25 21 16 20 25 31 15 15 3 5 4 1 1 0 0 0 0 0 1 1 0 0 0
8 7 8 8 8 8 6 6 7 6 9 8 20 20 22 16 23 28 34 26 27 30 32 25 22 30 38 36 8 6 5 1 1 0 0 0 0 0 0 0 0 0 0
6 7 8 8 9 8 10 9 6 6 7 7 10 11 16 27 29 29 17 19 19 34 34 39 26 32 37 33 14 9 4 5 1 0 0 0 0 0 0 0 0 0 0
5 7 10 11 10 7 8 11 10 9 8 9 10 10 11 11 16 17 20 4 2 4 10 11 24 25 16 9 6 10 6 5 3 0 1 0 0 0 0 0 0 0 0

GFSMW_con_sbcape_135.txt.gz
CAPE
0 0 0 0 0 0 0 0 0 0 452 2394 2302 2380 2599 2572 2230 2343 2492 2547 2147 1967 2383 2548 2628 2044 2624 2611 2012 2070 1877 1828 1568 1621 1447 1462 1363 1217 942 650 431 819 755
0 0 0 0 0 0 0 0 0 0 0 2144 2327 2311 2541 2585 2497 2447 2543 2461 2822 1919 1853 1882 2233 1535 2127 2710 2731 1720 1478 1719 1658 1332 1212 897 1027 968 999 1011 868 939 777
3 3 4 4 0 10 0 0 0 0 0 35 2261 1913 2218 2477 2229 2033 2087 2305 2476 1820 1802 1667 2368 2418 2448 2374 2505 1591 1366 1490 1639 1710 1101 968 698 668 1296 1112 988 924 685
10 11 10 10 2 0 19 0 0 0 0 0 1624 1939 2077 2033 1852 1780 1897 1891 2028 1780 1546 1497 2352 2780 2488 2040 2014 1172 1455 1473 1297 1228 1668 1751 1600 868 970 884 729 832 673
6 5 13 14 7 1 0 47 0 0 0 0 947 2211 2098 2232 1990 1877 2024 2003 2388 2437 2000 1474 2259 2681 2521 1325 1083 1070 1008 1065 889 745 1100 1540 1574 1522 1205 673 741 682 539
17 9 5 11 15 6 0 3 78 3 0 0 561 2183 2209 2314 1982 2029 2236 2034 2383 2401 2599 2436 2343 2293 1699 1496 929 715 687 1010 958 1290 1020 808 919 1009 1074 1218 1083 929 887
18 26 10 10 16 14 12 4 3 3 5 76 190 1970 1813 2065 2284 2166 2183 2471 2365 2227 2521 2137 2139 1877 1736 1366 123 37 13 41 433 1360 1144 1470 987 772 664 1067 1135 994 1033
18 22 11 9 8 14 10 9 6 6 3 3 2 34 69 985 2032 2439 2885 2736 2437 1983 2159 2001 1277 1186 1409 454 399 193 0 0 300 1089 922 1486 1245 1116 814 767 1126 1102 1036
27 21 13 7 8 8 7 11 8 12 7 5 3 8 0 13 4 0 606 1160 1210 852 1011 786 876 658 952 832 847 782 354 240 411 537 983 1050 1170 1395 1431 1331 1159 1070 787
16 21 10 6 8 8 20 20 18 18 9 2 5 8 12 19 18 1 0 0 0 0 141 547 813 846 594 1011 1390 1168 926 958 1021 980 1271 1242 1045 1335 1627 1542 1420 1261 1053
15 13 6 3 4 1 3 24 26 18 16 5 10 18 25 15 12 10 4 1 0 0 0 0 0 23 334 487 589 898 1207 992 1216 1227 989 852 1081 1086 1430 1366 1385 1318 1185
12 12 13 7 6 2 2 16 19 41 24 12 8 29 16 22 3 2 0 1 0 0 0 0 0 0 0 0 4 151 448 506 559 548 629 659 711 876 952 889 1026 1318 1213
12 11 8 10 13 7 2 5 34 9 6 3 5 6 6 8 5 0 0 0 0 0 0 0 0 0 0 0 0 0 0 3 470 485 232 374 432 479 684 530 456 761 867
17 15 11 10 10 7 5 0 4 0 1 7 1 3 2 3 0 0 0 3 1 0 0 0 0 0 0 0 0 0 0 3 6 28 351 510 337 209 588 686 369 428 633
18 17 16 15 11 10 5 1 1 4 7 6 4 4 3 3 2 2 1 1 1 1 1 0 0 0 0 0 0 0 0 2 11 21 24 167 294 94 223 415 249 215 196
20 13 10 14 11 15 12 15 16 13 4 1 5 4 4 2 2 3 3 2 4 5 5 5 5 5 2 0 0 0 2 2 6 9 2 100 3 0 0 0 22 198 37
5 8 8 7 17 17 14 13 12 6 6 5 7 2 4 0 1 0 0 0 1 4 5 5 6 6 7 0 0 0 2 2 4 5 7 3 49 5 220 0 0 0 0
3 3 6 8 10 12 16 10 11 10 12 8 7 6 6 4 4 2 1 4 3 5 5 6 3 4 3 0 3 3 5 5 6 6 11 4 18 43 6 28 0 0 0
3 4 5 7 10 12 13 10 9 6 8 11 12 10 8 4 7 6 7 4 3 6 8 6 5 4 4 1 7 8 10 6 7 7 13 13 48 47 0 8 0 1 1
3 5 5 7 10 16 14 12 13 12 13 16 16 10 10 11 10 13 8 5 3 3 8 5 12 1 10 2 7 7 13 12 9 5 5 9 9 65 1 0 0 0 0
4 5 5 7 9 16 18 17 16 15 16 15 16 14 10 10 7 9 8 6 4 5 7 6 9 6 9 11 8 8 11 9 5 3 0 1 0 1 2 1 0 0 0
7 6 7 8 6 4 18 15 15 16 13 13 13 14 15 16 14 13 13 8 7 7 20 20 15 22 21 10 6 8 8 6 3 2 1 0 0 1 1 1 0 1 1
8 5 7 6 8 6 20 19 17 13 11 14 13 12 17 19 19 24 20 25 21 19 17 22 13 21 31 25 8 6 4 5 3 3 2 1 1 0 0 1 1 1 0
6 7 7 7 10 11 7 19 12 13 15 20 19 16 19 18 20 23 27 23 25 26 25 23 22 27 30 24 31 19 16 5 7 5 5 1 0 0 1 0 0 0 0
5 5 8 5 7 11 7 8 8 6 11 16 22 19 20 23 26 36 24 28 16 24 21 21 23 24 31 26 16 15 18 14 10 4 1 0 1 0 0 0 0 0 0
3 4 6 6 5 6 8 8 9 10 5 6 11 17 19 26 27 34 39 9 4 4 8 4 12 23 9 10 11 11 13 7 2 11 7 1 1 0 1 0 0 0 0